Showing default

HAWK-10A, 60540

Orbit data source: Space-Track

HAWK-10A, 60540 is a payload satellite owned by HawkEye 360 (US) in SSO that was launched on Fri, 16 Aug 2024 UTC via an FALCON 9 launch vehicle from the Air Force Western Test Range (AFWTR). Payload-class satellites include a variety of spacecraft equipped with specific instruments for various scientific and technological missions. These include communications satellites like Starlink; space stations such as the ISS; scientific satellites like the Hubble; Earth observation satellites from companies like Planet Labs, Umbra, and HawkEye 360; GPS; miniature CubeSats for education and research; and military/defense satellites.

Loading next visibility...
Identifier
60540, 2024-149CA
Orbit
SSO
Country
Flag of USUS
Related business
Manufacturer
UTIAS-SFL
Mission
Operational Commercial Sigint
Bus & Motor
HAWK2G, Unknown motor
Mass
31 kg wet, 30 kg dry
Launch date (UTC)
2024-08-16 (2 years ago)
Launch vehicle
FALCON 9
Launch site
Air Force Western Test Range (AFWTR)
Object type
Payload
Rocket body
Debris
Shape & HBR
Box + 2 Pan, 1.0 m
Radar Cross Section
0.240 m², Medium (>0.1 m² and < 1m²)

Expand to show TLE details & history
Last TLE update: 8 hours ago

TLE from 8 hours ago
0 HAWK-10A
1 60540U 24149CA  26257.15825248  .00001657  00000-0  15000-3 0  9990
2 60540  97.6827 331.5211 0004827 121.4790 238.6904 14.96727847113290
Epoch: 2026-09-14T03:47Z
TLE epoch observation values (Epoch: 2026-09-14T03:47:53.014Z)
Latitude
-0.00001°
Longitude
-78.59236°
Altitude
581.812 km
Speed
7.569 km/s
True Right ascension
22h 06m 05s
True Declination
0° 00' 00"
Sunlit
Object was in full shadow at epoch
Visualization orbit readout
Latitude
Unknown
Longitude
Unknown
Altitude
Unknown
Speed
Unknown
Apparent Right ascension
Unknown
Apparent Declination
Unknown
Sunlit
N/A
Visualization observer readout
Local Sidereal Time
04:46:58
Azimuth
Unknown
Elevation
Unknown
Doppler factor
Unknown
Orbital elements
Apogee altitude
577.38 km
Perigee altitude
570.668 km
Semi-major axis
6,952.161 km
Eccentricity
0.00048
Inclination
97.6827°
RAAN
331.5211°
Arg. of periapsis
121.479°
True anomaly
238.64316°
Mean anomaly
238.6904°
Eccentric anomaly
238.66678°
Mean motion
3.74424 °/min
Orbital period
96.15 mins
BSTAR
0.00015
Loading maneuver chart data...
Computing Atmospheric mass density...
Loading historical data...
Loading historical data...
Loading historical data...
Loading historical data...
Loading historical data...
Loading historical data...
Loading historical data...

Documentation

Showing up to 5 results
|